GW5324 Weather Reports


Display with metric or nautical units.
time (UTC)temp
F
wind
direction
speed
MPH
gust
MPH
rain 1hr
in
rain 24hr
in
rain mn
in
humidity
%
barometer
mb
20260901161539 60 232 3.0 7.0 0.00 0.00 0.00 81 1012.4
20260901160038 60 259 3.0 10.0 0.00 0.00 0.00 79 1012.2
20260901154524 61 189 5.0 8.0 0.00 0.00 0.00 78 1012.3
20260901153036 61 202 5.0 9.0 0.00 0.00 0.00 77 1012.3
20260901151542 61 188 6.0 10.0 0.00 0.00 0.00 77 1012.1
20260901150032 60 180 2.0 8.0 0.00 0.00 0.00 77 1011.8
20260901144520 60 172 3.0 7.0 0.00 0.00 0.00 77 1011.8
20260901143038 60 138 2.0 5.0 0.00 0.00 0.00 77 1012.0
20260901141541 60 180 2.0 4.0 0.00 0.00 0.00 77 1011.9
20260901140319 60 132 1.0 2.0 0.00 0.00 0.00 78 1011.7
20260901140259 60 166 0.0 1.0 0.00 0.00 0.00 78 1011.7
20260901140251 59 159 0.0 4.0 0.00 0.00 0.00 79 1011.7
20260901130032 59 113 0.0 3.0 0.00 0.00 0.00 79 1011.5
20260901124534 59 94 2.0 3.0 0.00 0.00 0.00 80 1011.6
20260901123031 58 156 0.0 2.0 0.00 0.00 0.00 80 1011.6
20260901121530 58 214 0.0 4.0 0.00 0.00 0.00 80 1011.7
20260901120030 58 185 2.0 5.0 0.00 0.00 0.00 1011.5
20260901114532 58 154 2.0 5.0 0.00 0.00 0.00 81 1011.7
20260901113019 58 155 2.0 4.0 0.00 0.00 0.00 81 1011.6
20260901111527 58 167 2.0 7.0 0.00 0.00 0.00 80 1011.4
20260901110034 59 155 0.0 3.0 0.00 0.00 0.00 79 1011.3
20260901104534 59 151 0.0 8.0 0.00 0.00 0.00 78 1011.4
20260901103032 59 160 1.0 7.0 0.00 0.00 0.00 78 1011.3
20260901101529 60 192 3.0 9.0 0.00 0.00 0.00 77 1011.1
20260901100027 60 191 3.0 7.0 0.00 0.00 0.00 77 1011.1
20260901094532 60 140 3.0 6.0 0.00 0.00 0.00 76 1010.8
20260901093031 60 153 1.0 5.0 0.00 0.00 0.00 76 1010.9
20260901091524 61 135 3.0 6.0 0.00 0.00 0.00 76 1010.7
20260901090038 61 137 2.0 6.0 0.00 0.00 0.00 74 1010.4
20260901084530 62 146 1.0 8.0 0.00 0.00 0.00 74 1010.4
20260901083034 62 190 1.0 5.0 0.00 0.00 0.00 74 1010.5
20260901081533 62 206 1.0 6.0 0.00 0.00 0.00 73 1010.4
20260901080047 63 177 5.0 7.0 0.00 0.00 0.00 71 1010.3
20260901074528 63 132 3.0 8.0 0.00 0.00 0.00 69 1010.1
20260901073044 65 142 0.0 7.0 0.00 0.00 0.00 67 1009.9
20260901071532 66 245 4.0 13.0 0.00 0.00 0.00 65 1009.5
20260901070032 66 197 4.0 13.0 0.00 0.00 0.00 64 1009.4
20260901064535 67 198 7.0 12.0 0.00 0.00 0.00 64 1009.1
20260901063033 68 213 7.0 8.0 0.00 0.00 0.00 60 1009.0
20260901061534 69 190 6.0 10.0 0.00 0.00 0.00 60 1008.7
20260901060040 70 207 6.0 14.0 0.00 0.00 0.00 58 1008.6
20260901054537 71 208 5.0 10.0 0.00 0.00 0.00 55 1008.4
20260901053030 72 203 5.0 6.0 0.00 0.00 0.00 51 1008.4
20260901051534 72 165 2.0 3.0 0.00 0.00 0.00 51 1008.1
20260901050035 73 296 0.0 2.0 0.00 0.00 0.00 49 1007.8
20260901044535 73 220 1.0 3.0 0.00 0.00 0.00 50 1007.7
20260901043027 74 144 0.0 2.0 0.00 0.00 0.00 47 1007.9
20260901041508 74 127 2.0 2.0 0.00 0.00 0.00 46 1007.6
20260901040014 75 244 0.0 2.0 0.00 0.00 0.00 45 1007.4
20260901034521 77 250 0.0 1.0 0.00 0.00 0.00 41 1007.3
20260901033027 78 181 0.0 4.0 0.00 0.00 0.00 40 1006.9
20260901031533 79 196 3.0 6.0 0.00 0.00 0.00 39 1006.9
20260901030031 80 236 5.0 8.0 0.00 0.00 0.00 39 1006.6
20260901024517 81 198 5.0 11.0 0.00 0.00 0.00 38 1006.7
20260901023023 82 185 6.0 8.0 0.00 0.00 0.00 37 1006.6
20260901021536 83 224 7.0 10.0 0.00 0.00 0.00 37 1006.6
20260901020033 84 194 6.0 10.0 0.00 0.00 0.00 37 1006.5
20260901014535 84 221 8.0 11.0 0.00 0.00 0.00 35 1006.4
20260901013024 85 208 4.0 10.0 0.00 0.00 0.00 36 1006.3
20260901011504 85 240 1.0 5.0 0.00 0.00 0.00 34 1006.5
20260901010051 85 323 1.0 4.0 0.00 0.00 0.00 35 1006.5
20260901004537 85 329 2.0 6.0 0.00 0.00 0.00 36 1006.6
20260901003039 85 334 3.0 5.0 0.00 0.00 0.00 35 1006.5
20260901001504 85 323 2.0 4.0 0.00 0.00 0.00 35 1006.6
20260901000005 85 327 3.0 5.0 0.00 0.00 0.00 35 1006.8
20260831234513 86 352 1.0 5.0 0.00 0.00 0.00 33 1006.7
20260831233032 86 74 2.0 5.0 0.00 0.00 0.00 32 1006.9
20260831231502 85 317 3.0 6.0 0.00 0.00 0.00 33 1006.9
20260831230030 85 254 1.0 5.0 0.00 0.00 0.00 34 1006.9
20260831224511 84 352 2.0 5.0 0.00 0.00 0.00 34 1007.2
20260831223014 83 339 4.0 8.0 0.00 0.00 0.00 36 1007.3
20260831221530 83 321 4.0 7.0 0.00 0.00 0.00 38 1007.5
20260831220036 82 338 2.0 8.0 0.00 0.00 0.00 38 1007.7
20260831214539 84 246 1.0 6.0 0.00 0.00 0.00 37 1007.6
20260831213041 81 321 3.0 8.0 0.00 0.00 0.00 41 1007.8
20260831211533 80 205 6.0 9.0 0.00 0.00 0.00 41 1008.1
20260831210025 79 320 3.0 10.0 0.00 0.00 0.00 43 1008.2
20260831204530 79 227 4.0 11.0 0.00 0.00 0.00 43 1008.2
20260831203031 78 330 5.0 8.0 0.00 0.00 0.00 45 1008.5
20260831201533 77 309 4.0 8.0 0.00 0.00 0.00 46 1008.7
20260831200024 75 304 4.0 7.0 0.00 0.00 0.00 49 1009.0
20260831194528 74 309 2.0 7.0 0.00 0.00 0.00 50 1009.3
20260831193035 73 322 3.0 9.0 0.00 0.00 0.00 52 1009.3
20260831191536 72 331 3.0 7.0 0.00 0.00 0.00 54 1009.8
20260831190018 71 298 4.0 7.0 0.00 0.00 0.00 55 1010.0
20260831184535 70 301 3.0 7.0 0.00 0.00 0.00 55 1010.0
20260831183010 70 336 3.0 6.0 0.00 0.00 0.00 57 1010.3
20260831181511 68 275 2.0 6.0 0.00 0.00 0.00 58 1010.7
20260831180032 67 323 2.0 4.0 0.00 0.00 0.00 59 1010.8
20260831174524 66 327 3.0 8.0 0.00 0.00 0.00 62 1010.8
20260831173034 65 259 4.0 9.0 0.00 0.00 0.00 65 1011.0
20260831171517 65 269 3.0 7.0 0.00 0.00 0.00 66 1011.1
20260831170042 63 269 3.0 6.0 0.00 0.00 0.00 70 1011.2
20260831164523 62 224 3.0 6.0 0.00 0.00 0.00 73 1011.2
20260831163027 61 321 4.0 8.0 0.00 0.00 0.00 76 1011.5